SCP
0 0 0 0 0 0 0 0 -0 -0 -0 0 0 0 0 0 0 -0 0 0 0 0 0 0 0 0 0 0 0 0 0 0 0 0 0 0 0 0 0 0 0 0 0 0 0 0 -0 0 0 0 0 0 -0 0
0 0 0 0 0 0 0 -0 -0 -0 0 0 0 0 0 0 -0 -0 0 0 0 0 0 0 0 0 0 0 0 0 0 0 0 0 0 0 0 0 0 0 0 0 0 0 0 0 0 0 0 0 0 -0 0 0
0 0 0 0 0 0 0 -0 -0 -0 0 0 0 0 0 0 0 -0 0 0 0 0 0 0 0 0 0 0 0 0 0 0 0 0 0 0 0 0 0 0 0 0 0 0 0 0 0 0 0 0 0 -0 0 0
0 0 0 0 0 0 0 0 0 0 0 0 0 0 0 0 0 -0 0 0 0 0 0 0 0 0 0 0 0 0 0 0 0 0 0 0 0 0 0 0 0 0 0 0 0 0 0 0 0 -0 -0 -0 -0 0
0 0 0 0 -0 0 -0 0 0 0 0 0 0 0 0 0 0 0 0 0 0 0 0 0 0 0 0 0 0 0 0 0 0 0 0 0 0 0 0 0 0 0 0 0 0 0 0 0 0 -0 -0 -0 -0 -0
0 0 0 0 -0 -0 0 0 0 0 0 0 0 0 0 0 0 0 0 0 0 0 0 0 0 0 0 0 0 0 0 0 0 0 0 0 0 0 0 0 0 0 0 0 0 0 0 -0 -0 0 -0 -0 0 -0
0 0 -0 -0 -0 -0 0 0 0 0 0 0 0 0 0 0 0 0 0 0 0 0 0 0 0 0 0 0 0 0 0 0 0 0 0 0 0 0 0 0 0 0 0 0 -0 -0 0 0 0 0 -0 -0 -0 -0
0 0 -0 0 -0 -0 0 0 0 0 0 0 0 0 0 0 0 0 0 0 0 0 0 0 0 0 0 0 0 0 0 0 0 0 0 0 0 0 0 0 0 0 0 0 0 0 0 -0 -0 -0 -0 -0 -0 -0
0 0 0 0 -0 -0 0 0 0 0 0 0 0 0 0 0 0 0 0 0 0 0 0 0 0 0 0 0 0 0 0 0 0 0 0 0 0 0 0 0 0 0 0 0 0 -0 -0 -0 -0 -0 -0 -0 -0 -0
0 0 0 0 -0 -0 0 0 0 0 0 0 0 0 0 0 0 0 0 0 0 0 0 0 0 0 0 0 0 0 0 0 0 0 0 0 0 0 0 0 0 0 -0 -0 -0 0 0 -0 -0 -0 -0 -0 -0 -0
0 0 0 0 -0 0 0 0 0 0 0 0 0 0 0 0 0 0 0 0 0 0 0 0 0 0 0 0 0 0 0 0 0 0 0 0 0 0 0 0 0 0 -0 0 -0 -0 -0 -0 -0 -0 -0 -0 -0 -0
0 0 0 0 0 0 0 0 0 0 0 0 0 0 0 0 0 0 0 0 0 0 0 0 0 0 0 0 0 0 0 0 0 0 0 0 0 0 0 0 0 0 0 0 -0 -0 -0 -0 -0 -0 -0 -0 -0 -0
0 0 0 0 0 0 0 0 0 0 0 0 0 0 0 0 0 0 0 0 0 0 0 0 0 0 0 0 0 0 0 0 0 0 0 0 0 0 0 0 0 0 0 0 0 0 -0 -0 -0 -0 -0 -0 -0 -0
0 0 0 0 0 0 0 0 0 0 0 0 0 0 0 0 0 0 0 0 0 0 0 0 0 0 0 0 0 0 0 0 0 0 0 0 0 0 0 0 0 0 0 -0 -0 -0 -0 -0 -0 -0 -0 -0 -0 -0
0 0 0 0 0 0 0 0 0 0 0 0 0 0 0 0 0 0 0 0 0 0 0 0 0 0 0 0 0 0 0 0 0 0 0 0 0 0 0 0 0 0 0 0 -0 -0 -0 -0 -0 -0 -0 -0 -0 -0
0 0 0 0 0 0 0 0 0 0 0 0 0 0 0 0 0 0 0 0 0 0 0 0 0 0 0 0 0 0 0 0 0 0 0 0 0 0 0 0 0 0 0 0 0 0 -0 -0 -0 -0 -0 0 0 -0
0 0 -0 -0 0 0 0 0 0 0 0 0 0 0 0 0 0 0 0 0 0 0 0 0 0 0 0 0 0 0 0 0 0 0 0 0 0 0 0 0 0 0 0 0 0 0 0 0 -0 -0 -0 0 0 0
0 0 -0 -0 0 0 0 0 0 0 0 0 0 0 0 0 0 0 0 0 0 0 0 0 0 0 0 0 0 0 0 0 0 0 0 0 0 0 0 0 0 0 0 0 0 0 -0 -0 0 0 0 0 0 0
0 0 0 0 0 0 0 0 0 0 0 0 0 0 0 0 0 0 0 0 0 0 0 0 0 0 0 0 0 0 0 0 0 0 0 0 0 0 0 0 0 0 0 0 0 0 0 0 0 0 0 0 0 0
-0 0 0 0 0 0 0 0 0 0 0 0 0 0 0 0 0 0 0 0 0 0 0 0 0 0 0 0 0 0 0 0 0 0 0 0 0 0 0 0 0 0 0 0 0 0 0 0 0 0 0 0 0 0
0 0 0 0 0 0 0 0 0 0 0 0 0 0 0 0 0 0 0 0 0 0 0 0 0 0 0 0 0 0 0 0 0 0 0 0 0 0 0 0 0 0 0 0 0 0 0 0 0 0 0 0 0 0
0 0 0 0 0 0 0 0 0 0 0 0 0 0 0 0 0 0 0 0 0 0 0 0 0 0 0 0 0 0 0 0 0 0 0 0 0 0 0 0 0 0 0 0 0 0 0 0 0 0 0 0 0 0
0 0 0 0 0 0 0 0 0 0 0 0 0 0 0 0 0 0 0 0 0 0 0 0 0 0 0 0 0 0 0 0 0 0 0 0 0 0 0 0 0 0 0 0 0 0 0 0 0 0 0 0 0 0
0 0 0 0 0 0 0 0 0 0 0 0 0 0 0 0 0 0 0 0 0 0 0 0 0 0 0 0 0 0 0 0 0 0 0 0 0 0 0 0 0 0 0 0 0 0 0 0 0 0 0 0 0 0
0 0 0 0 0 0 0 0 0 0 0 0 0 0 0 0 0 0 0 0 0 0 0 0 0 0 0 0 0 0 0 0 0 0 0 0 0 0 0 0 0 0 0 0 0 0 0 0 0 0 0 0 0 0
0 0 0 0 0 0 0 0 0 0 0 0 0 0 0 0 0 0 0 0 0 0 0 0 0 0 0 0 0 0 0 0 0 0 0 0 0 0 0 0 0 0 0 0 0 0 0 0 0 0 0 0 0 0
0 0 0 0 0 0 0 0 0 0 0 0 0 0 0 0 0 0 0 0 0 0 0 0 0 0 0 0 0 0 0 0 0 0 0 0 0 0 0 0 0 0 0 0 0 0 0 0 0 0 0 0 0 0
0 0 0 0 0 0 0 0 0 0 0 0 0 0 0 0 0 0 0 0 0 0 0 0 0 0 0 0 0 0 0 0 0 0 0 0 0 0 0 0 0 0 0 0 0 0 0 0 0 0 0 0 0 0
0 0 0 0 0 0 0 0 0 0 0 0 0 0 0 0 0 0 0 0 0 0 0 0 0 0 0 0 0 0 0 0 0 0 0 0 0 0 0 0 0 0 0 0 0 0 0 0 0 0 0 0 0 0
-0 0 0 0 0 0 0 0 0 0 0 0 0 0 0 0 0 0 0 0 0 0 0 0 0 0 0 0 0 0 0 0 0 0 0 0 0 0 0 0 0 0 0 0 0 0 0 0 0 0 0 0 0 0
0 0 0 0 0 0 0 0 0 0 0 0 0 0 0 0 0 0 0 0 0 0 0 0 0 0 0 0 0 0 0 0 0 0 0 0 0 0 0 0 0 0 0 0 0 0 0 0 0 0 0 0 0 0
0 0 0 0 0 0 0 0 0 0 0 0 0 0 0 0 0 0 0 0 0 0 0 0 0 0 0 0 0 0 0 0 0 0 0 0 0 0 0 0 0 0 0 0 0 0 0 0 0 0 0 0 0 0
0 0 0 0 0 0 0 0 0 0 0 0 0 0 0 0 0 0 0 0 0 0 0 0 0 0 0 0 0 0 0 0 0 0 0 0 0 0 0 0 0 0 0 0 0 0 0 0 0 0 0 0 0 0
Wind_Speed_500mb
34 35 45 53 51 43 35 36 34 35 32 45 48 39 45 58 55 52 63 53 24 9 11 8 10 11 15 17 11 13 11 6 8 10 7 6 7 7 7 8 10 9 9 5 6 8 5 13 14 13 12 30 59 55
32 40 42 45 45 38 36 32 33 30 37 38 41 33 55 56 50 54 53 30 19 19 6 11 19 17 14 20 39 10 16 8 9 9 4 7 6 5 7 4 7 2 10 11 5 7 9 8 4 22 43 65 57 62
32 41 40 36 35 33 33 34 29 35 33 41 57 57 59 52 43 79 55 15 16 11 4 8 22 25 21 28 33 18 8 10 10 16 14 5 10 6 6 4 8 5 3 9 6 14 15 34 48 45 50 53 52 56
32 33 32 32 30 33 32 32 32 28 36 27 56 60 53 46 55 79 50 4 17 6 7 13 21 24 22 24 19 23 40 37 30 20 14 6 8 6 6 7 8 7 9 11 8 12 31 27 49 50 53 54 60 60
27 28 28 28 33 28 28 22 25 31 27 66 68 54 45 43 62 50 32 10 18 9 10 12 37 33 28 33 32 36 37 43 23 11 10 3 8 8 4 5 4 11 13 8 9 40 22 37 52 53 61 65 63 66
23 25 26 29 27 20 24 27 25 29 38 69 54 46 45 52 44 33 15 15 17 14 4 6 14 28 40 42 47 43 40 31 20 14 9 9 6 6 6 3 4 12 30 26 20 47 46 62 59 53 60 61 58 57
19 20 24 24 20 18 23 18 25 39 63 58 46 42 51 45 36 35 5 20 19 14 9 6 6 9 27 42 46 38 32 27 17 10 9 7 5 7 6 6 9 22 28 31 78 61 58 67 64 58 58 58 55 56
17 20 19 16 18 17 18 23 41 64 58 49 40 55 45 30 29 46 9 19 16 12 8 7 2 8 15 11 12 15 15 15 18 9 7 6 5 5 2 5 17 36 51 69 63 49 77 69 66 65 60 62 61 60
18 18 16 19 17 16 17 27 49 61 56 44 48 54 35 18 26 27 18 17 16 8 12 7 9 6 8 10 13 12 11 8 7 6 5 5 3 4 11 33 44 59 56 67 46 54 74 77 75 70 64 61 62 63
18 28 28 19 15 12 26 36 61 57 53 53 58 12 13 16 56 22 2 8 6 5 5 7 10 7 16 6 9 7 11 3 5 3 2 5 6 7 19 41 50 54 65 74 73 62 73 77 77 73 65 59 54 60
27 33 16 9 11 14 32 57 57 61 61 48 5 10 31 32 24 10 13 12 12 7 6 8 15 13 10 10 7 8 5 2 5 6 7 3 6 12 33 46 56 45 57 70 60 68 77 77 78 74 66 57 54 56
30 21 16 10 10 21 49 65 54 55 38 31 21 26 14 9 14 12 6 6 2 7 9 17 26 21 16 12 13 6 7 6 4 1 7 5 8 22 50 58 55 57 65 60 49 67 69 69 66 63 58 56 54 53
21 21 13 12 8 29 45 48 37 47 54 39 12 7 8 9 7 10 10 7 2 10 17 23 10 13 12 13 16 8 7 5 4 6 7 9 9 27 60 67 61 62 63 54 56 64 65 64 59 53 56 52 53 54
26 20 13 14 13 20 31 43 50 60 46 11 8 8 2 5 6 7 7 7 8 22 52 54 20 11 9 10 6 9 1 6 6 1 11 6 25 48 67 73 68 65 61 53 57 62 62 60 57 50 49 53 54 53
30 23 19 12 18 38 21 42 50 37 13 11 8 5 8 7 9 9 15 4 16 64 52 35 20 13 7 9 4 8 5 6 11 10 7 17 43 59 76 77 71 69 62 58 61 62 62 59 55 53 51 49 48 47
33 28 23 13 15 24 34 34 23 15 11 8 8 5 6 1 4 6 13 10 49 65 49 18 8 8 4 9 7 9 14 12 8 7 9 39 57 69 78 75 71 66 62 63 61 61 62 60 56 54 53 48 46 43
19 30 28 21 17 16 15 21 13 13 9 7 5 5 4 8 9 4 7 36 62 48 7 10 9 6 8 7 5 8 10 7 6 11 35 50 62 71 74 70 67 62 66 64 63 63 61 59 54 53 54 53 47 43
24 27 30 28 22 19 17 11 7 8 9 9 5 9 12 16 12 2 6 39 35 25 14 7 17 6 9 11 7 8 16 5 11 28 47 51 58 64 64 62 62 63 62 61 62 61 60 60 57 54 51 52 50 49
28 33 36 32 14 8 7 8 9 7 7 7 9 14 11 12 9 11 7 39 27 17 25 9 9 5 7 13 10 21 26 26 35 40 49 51 52 54 58 60 60 63 60 57 60 61 59 55 52 51 51 53 53 54
30 33 33 14 9 11 8 8 4 6 5 9 13 15 14 9 14 8 21 44 24 16 7 5 6 8 6 2 5 15 29 37 47 52 48 48 49 49 52 56 63 65 63 61 63 61 59 55 52 48 50 51 50 51
36 37 23 10 12 10 7 1 3 4 6 8 14 15 11 9 6 8 16 43 15 7 6 8 11 9 1 3 7 17 32 39 48 47 61 58 51 50 53 57 60 63 63 62 63 62 56 51 51 50 50 47 45 42
40 36 15 9 10 8 6 2 4 6 4 6 10 10 7 7 6 7 18 10 7 7 11 16 19 17 16 15 16 24 28 35 37 24 43 52 61 60 60 57 59 63 63 60 59 59 55 50 48 47 47 46 43 41
38 22 9 6 4 5 2 3 6 3 0 1 5 6 5 8 5 8 8 6 6 18 23 23 24 22 15 15 15 18 23 28 31 26 38 51 52 56 55 53 56 59 62 60 58 55 52 49 46 46 47 47 46 46
26 7 1 1 2 1 3 3 2 3 4 5 3 3 3 7 6 8 4 2 8 23 31 29 25 22 15 9 11 15 21 23 26 31 40 47 49 51 52 51 51 51 55 57 57 52 49 47 45 46 47 49 49 48
7 5 5 2 6 4 3 4 4 4 4 4 4 2 3 7 4 4 6 10 29 35 34 34 28 17 8 10 15 17 18 18 30 39 42 41 45 47 46 43 44 46 48 52 53 52 50 47 46 46 47 47 47 47
5 11 11 15 6 7 9 5 7 8 6 3 3 7 4 4 3 3 5 16 35 39 38 37 33 28 19 14 16 19 19 17 22 36 42 42 44 50 56 56 54 51 49 47 49 52 50 47 45 43 42 40 39 40
5 11 12 12 8 5 3 3 4 5 7 9 6 5 3 1 6 0 3 12 26 40 41 37 30 24 20 22 21 17 13 9 9 17 29 36 37 43 45 49 53 50 51 50 48 45 43 42 42 40 37 35 36 35
6 6 7 12 7 4 6 5 3 10 7 9 14 4 12 3 1 9 2 5 27 35 38 32 22 17 20 19 20 22 22 26 27 26 28 26 24 29 31 29 27 31 41 44 43 41 39 36 35 33 33 33 32 32
3 4 0 7 6 6 16 10 4 5 9 12 7 4 6 6 10 9 1 13 25 37 39 35 33 31 29 27 25 23 19 29 33 33 30 29 31 31 34 33 32 33 37 42 42 38 34 32 31 30 30 30 28 30
2 4 1 3 7 8 12 12 6 11 10 17 21 23 23 21 30 20 14 26 34 38 39 38 32 28 33 35 35 30 27 23 17 11 14 20 24 30 34 35 34 34 36 38 40 41 41 40 40 40 39 38 38 38
6 12 9 11 8 10 18 31 34 30 21 14 33 33 22 17 26 38 30 28 29 29 34 42 38 28 26 30 30 30 31 25 20 16 14 16 18 22 24 27 28 28 30 32 34 36 36 36 35 35 36 38 38 39
9 10 12 4 4 23 31 13 15 17 21 21 13 9 12 9 13 14 32 26 32 35 37 38 36 33 30 34 33 28 25 25 25 23 21 18 21 20 20 21 23 24 25 26 28 29 30 32 34 36 36 36 36 38
6 7 11 12 9 10 10 17 11 9 9 9 11 16 11 10 11 8 14 20 23 27 32 35 37 36 33 32 30 29 29 27 26 27 25 21 20 22 25 26 28 29 30 31 32 34 36 37 38 38 37 36 36 37
Wind_Direction_500mb
175 176 186 188 195 200 206 213 213 219 234 222 217 225 180 187 203 207 215 218 235 271 322 225 209 170 153 151 135 163 93 13 53 72 114 178 117 198 95 149 164 148 128 145 92 85 277 137 142 152 167 127 159 162
193 188 182 189 198 200 206 213 212 228 232 220 212 199 178 196 203 209 214 220 227 236 239 89 100 132 146 153 139 132 133 118 148 94 76 118 95 82 142 154 45 96 174 151 148 198 331 317 148 133 152 152 155 164
166 167 172 182 192 196 203 207 223 226 234 208 203 181 181 195 195 198 206 234 186 198 110 141 97 101 115 147 145 121 118 117 120 110 139 129 93 121 124 198 109 83 139 89 112 7 55 114 126 132 141 152 162 162
160 165 176 182 193 191 201 219 216 227 205 198 193 188 187 189 186 198 213 257 194 181 116 55 94 88 101 137 123 138 139 127 118 107 81 107 109 174 185 157 124 184 99 113 72 87 99 110 129 134 133 138 144 148
165 173 175 172 178 195 209 219 222 226 204 171 177 183 183 185 186 204 227 199 199 201 160 121 83 77 99 124 129 136 138 134 107 72 64 114 127 112 28 78 120 181 157 146 202 183 136 157 145 145 138 141 146 146
171 172 172 168 174 199 226 227 210 202 184 169 172 177 174 170 184 187 226 194 183 181 170 73 60 78 105 125 128 128 129 107 91 87 99 99 95 108 99 145 225 187 180 150 143 156 154 150 150 151 141 146 148 148
184 172 165 172 186 208 224 213 182 172 161 165 168 170 167 169 171 185 225 162 169 161 126 74 22 51 95 114 106 99 103 83 78 89 70 98 88 81 100 152 176 154 161 141 147 142 132 153 156 154 145 147 148 148
175 166 167 179 186 208 200 184 166 169 161 158 165 163 163 174 170 203 216 149 144 119 94 101 338 49 85 85 78 71 80 70 46 76 79 84 83 64 105 213 143 144 145 149 152 160 158 158 155 153 154 153 152 152
173 186 181 178 183 201 197 137 145 156 153 156 161 161 147 162 178 207 138 108 98 109 111 102 129 178 111 81 89 66 60 53 43 76 45 70 310 216 207 165 152 157 154 154 154 158 155 157 158 159 161 162 158 158
198 188 177 163 176 199 160 117 150 147 147 155 162 149 130 153 174 174 184 163 129 88 96 95 124 117 133 92 59 88 46 62 62 296 67 78 248 241 189 177 166 167 164 159 143 140 156 160 164 166 170 170 167 162
160 140 140 142 145 135 142 136 136 144 151 149 111 81 135 128 172 52 1 35 9 50 66 106 130 121 107 98 125 51 148 36 88 264 117 305 280 217 180 176 171 176 179 177 179 173 174 168 168 169 171 172 170 165
119 119 150 125 107 111 123 145 146 149 164 143 121 119 115 76 51 79 321 342 67 157 144 135 126 104 99 100 94 33 95 42 157 133 81 253 247 178 174 177 177 176 176 174 176 171 172 170 170 168 168 170 170 169
114 129 140 122 58 118 100 152 139 139 153 146 91 85 57 25 102 168 154 247 255 183 154 152 93 102 97 80 76 76 79 186 138 54 227 227 191 178 178 178 176 176 176 171 172 171 171 173 171 169 167 169 170 172
117 114 105 78 41 86 146 128 141 142 135 95 86 45 71 173 225 197 195 198 167 152 142 123 82 85 91 63 108 91 202 107 57 196 235 233 194 169 176 178 176 173 175 173 171 172 172 172 168 170 172 170 174 176
110 113 98 66 55 75 132 129 146 153 89 91 118 131 221 250 264 245 228 242 142 150 136 100 68 86 45 96 45 113 111 214 209 228 232 191 169 170 173 174 174 173 175 172 172 172 172 170 167 168 174 176 179 180
119 123 100 86 41 66 65 126 124 100 65 77 70 102 335 170 301 225 216 208 153 144 134 94 97 80 82 126 128 189 151 217 240 216 212 165 168 171 172 173 174 175 176 174 173 173 172 170 170 171 173 179 181 187
134 116 118 101 84 72 64 92 89 43 54 61 45 39 4 277 264 254 199 159 157 149 117 115 94 161 113 88 167 184 205 222 257 183 165 170 171 171 172 173 173 175 175 175 173 173 173 172 173 176 177 178 182 184
124 121 117 110 97 87 92 67 81 70 61 49 52 9 337 303 300 38 145 173 168 154 124 132 121 110 145 162 227 225 206 203 157 159 163 167 168 170 172 172 174 176 176 176 175 173 175 176 180 183 184 182 179 181
123 126 123 125 115 58 63 45 38 61 19 5 351 348 331 306 317 312 207 186 175 149 119 86 86 141 213 216 192 171 170 161 152 155 164 167 171 173 176 179 181 179 177 177 177 177 179 184 187 187 187 186 185 184
124 132 138 129 54 36 49 49 60 54 17 7 345 343 330 331 346 11 162 181 174 158 72 74 178 201 198 155 177 188 172 165 157 152 162 172 178 181 183 184 182 181 181 179 180 181 183 185 188 192 193 194 192 192
145 152 151 124 65 50 78 132 122 57 37 347 344 347 332 348 61 98 139 177 184 82 126 156 150 157 147 101 146 159 176 176 174 173 173 173 179 183 181 182 185 186 186 185 185 185 189 192 191 192 195 196 197 199
156 162 145 99 42 37 56 16 75 31 41 354 348 11 2 9 37 72 123 146 111 112 129 151 151 131 115 104 121 157 175 183 187 190 186 180 175 181 184 185 186 187 188 190 190 190 191 194 195 194 195 196 197 199
150 149 89 68 28 24 316 40 64 208 127 81 35 14 7 359 52 116 83 95 110 144 159 162 140 124 117 115 132 156 176 193 197 201 189 186 189 186 186 187 190 191 190 193 195 195 195 193 194 197 198 198 200 202
135 85 81 133 61 331 320 33 217 266 106 73 77 41 5 356 10 64 73 67 123 161 165 168 164 145 138 160 177 182 187 186 194 190 188 189 189 189 193 195 195 198 202 196 193 194 196 196 196 197 202 203 205 209
146 192 232 184 174 157 65 291 154 76 104 138 110 7 316 2 70 73 163 186 162 166 174 180 182 192 201 192 195 190 186 189 194 186 183 193 183 180 181 189 192 194 196 197 194 193 195 197 201 201 203 207 211 215
135 200 183 194 194 168 181 131 184 150 143 122 168 101 54 45 40 211 197 169 176 180 188 193 194 188 189 205 202 195 185 177 189 193 188 185 185 187 184 186 188 189 191 197 202 199 200 201 202 202 205 208 213 216
173 203 206 190 199 163 147 168 208 119 145 189 152 117 86 210 241 127 161 188 181 187 194 198 208 219 214 179 154 154 155 164 186 192 186 185 189 194 199 197 196 195 198 198 199 206 209 207 207 208 210 213 218 221
222 174 162 188 220 161 75 354 183 185 191 176 124 134 163 189 279 313 194 182 188 188 190 191 189 190 175 158 154 154 147 145 139 142 157 171 174 186 198 208 214 213 216 212 208 206 206 211 216 219 223 227 231 232
219 157 222 165 132 154 206 205 242 182 171 166 108 103 102 79 6 351 303 160 179 179 179 180 176 180 181 168 161 164 167 164 162 158 165 172 179 185 186 189 195 201 204 205 205 204 204 209 217 223 230 235 240 242
204 213 59 147 157 211 214 198 193 173 159 137 122 116 105 94 60 60 106 146 163 168 176 176 164 174 173 170 168 168 166 167 174 187 191 185 171 176 174 172 173 178 182 184 190 196 200 205 210 213 219 225 228 232
196 187 161 177 204 198 149 146 140 140 128 121 141 129 130 120 78 61 73 110 135 163 173 174 166 168 173 177 182 177 171 175 182 179 171 160 169 167 164 163 163 170 178 185 193 201 207 213 218 224 230 237 241 244
188 198 147 182 149 164 149 123 98 100 124 122 105 120 113 86 68 55 40 74 115 130 146 155 157 153 169 179 181 183 190 186 185 185 183 178 177 175 175 180 185 189 194 202 210 217 223 229 235 240 245 248 250 251
80 95 139 142 171 195 151 118 102 91 74 89 91 99 87 75 85 70 53 58 83 102 116 123 132 142 154 161 168 173 180 188 198 206 208 208 210 210 210 213 216 218 220 222 225 228 233 239 244 248 252 254 255 255
Wind_Speed_850mb
34 35 45 53 51 43 35 36 34 35 32 45 48 39 45 58 55 52 63 53 24 9 11 8 10 11 15 17 11 13 11 6 8 10 7 6 7 7 7 8 10 9 9 5 6 8 5 13 14 13 12 30 59 55
32 40 42 45 45 38 36 32 33 30 37 38 41 33 55 56 50 54 53 30 19 19 6 11 19 17 14 20 39 10 16 8 9 9 4 7 6 5 7 4 7 2 10 11 5 7 9 8 4 22 43 65 57 62
32 41 40 36 35 33 33 34 29 35 33 41 57 57 59 52 43 79 55 15 16 11 4 8 22 25 21 28 33 18 8 10 10 16 14 5 10 6 6 4 8 5 3 9 6 14 15 34 48 45 50 53 52 56
32 33 32 32 30 33 32 32 32 28 36 27 56 60 53 46 55 79 50 4 17 6 7 13 21 24 22 24 19 23 40 37 30 20 14 6 8 6 6 7 8 7 9 11 8 12 31 27 49 50 53 54 60 60
27 28 28 28 33 28 28 22 25 31 27 66 68 54 45 43 62 50 32 10 18 9 10 12 37 33 28 33 32 36 37 43 23 11 10 3 8 8 4 5 4 11 13 8 9 40 22 37 52 53 61 65 63 66
23 25 26 29 27 20 24 27 25 29 38 69 54 46 45 52 44 33 15 15 17 14 4 6 14 28 40 42 47 43 40 31 20 14 9 9 6 6 6 3 4 12 30 26 20 47 46 62 59 53 60 61 58 57
19 20 24 24 20 18 23 18 25 39 63 58 46 42 51 45 36 35 5 20 19 14 9 6 6 9 27 42 46 38 32 27 17 10 9 7 5 7 6 6 9 22 28 31 78 61 58 67 64 58 58 58 55 56
17 20 19 16 18 17 18 23 41 64 58 49 40 55 45 30 29 46 9 19 16 12 8 7 2 8 15 11 12 15 15 15 18 9 7 6 5 5 2 5 17 36 51 69 63 49 77 69 66 65 60 62 61 60
18 18 16 19 17 16 17 27 49 61 56 44 48 54 35 18 26 27 18 17 16 8 12 7 9 6 8 10 13 12 11 8 7 6 5 5 3 4 11 33 44 59 56 67 46 54 74 77 75 70 64 61 62 63
18 28 28 19 15 12 26 36 61 57 53 53 58 12 13 16 56 22 2 8 6 5 5 7 10 7 16 6 9 7 11 3 5 3 2 5 6 7 19 41 50 54 65 74 73 62 73 77 77 73 65 59 54 60
27 33 16 9 11 14 32 57 57 61 61 48 5 10 31 32 24 10 13 12 12 7 6 8 15 13 10 10 7 8 5 2 5 6 7 3 6 12 33 46 56 45 57 70 60 68 77 77 78 74 66 57 54 56
30 21 16 10 10 21 49 65 54 55 38 31 21 26 14 9 14 12 6 6 2 7 9 17 26 21 16 12 13 6 7 6 4 1 7 5 8 22 50 58 55 57 65 60 49 67 69 69 66 63 58 56 54 53
21 21 13 12 8 29 45 48 37 47 54 39 12 7 8 9 7 10 10 7 2 10 17 23 10 13 12 13 16 8 7 5 4 6 7 9 9 27 60 67 61 62 63 54 56 64 65 64 59 53 56 52 53 54
26 20 13 14 13 20 31 43 50 60 46 11 8 8 2 5 6 7 7 7 8 22 52 54 20 11 9 10 6 9 1 6 6 1 11 6 25 48 67 73 68 65 61 53 57 62 62 60 57 50 49 53 54 53
30 23 19 12 18 38 21 42 50 37 13 11 8 5 8 7 9 9 15 4 16 64 52 35 20 13 7 9 4 8 5 6 11 10 7 17 43 59 76 77 71 69 62 58 61 62 62 59 55 53 51 49 48 47
33 28 23 13 15 24 34 34 23 15 11 8 8 5 6 1 4 6 13 10 49 65 49 18 8 8 4 9 7 9 14 12 8 7 9 39 57 69 78 75 71 66 62 63 61 61 62 60 56 54 53 48 46 43
19 30 28 21 17 16 15 21 13 13 9 7 5 5 4 8 9 4 7 36 62 48 7 10 9 6 8 7 5 8 10 7 6 11 35 50 62 71 74 70 67 62 66 64 63 63 61 59 54 53 54 53 47 43
24 27 30 28 22 19 17 11 7 8 9 9 5 9 12 16 12 2 6 39 35 25 14 7 17 6 9 11 7 8 16 5 11 28 47 51 58 64 64 62 62 63 62 61 62 61 60 60 57 54 51 52 50 49
28 33 36 32 14 8 7 8 9 7 7 7 9 14 11 12 9 11 7 39 27 17 25 9 9 5 7 13 10 21 26 26 35 40 49 51 52 54 58 60 60 63 60 57 60 61 59 55 52 51 51 53 53 54
30 33 33 14 9 11 8 8 4 6 5 9 13 15 14 9 14 8 21 44 24 16 7 5 6 8 6 2 5 15 29 37 47 52 48 48 49 49 52 56 63 65 63 61 63 61 59 55 52 48 50 51 50 51
36 37 23 10 12 10 7 1 3 4 6 8 14 15 11 9 6 8 16 43 15 7 6 8 11 9 1 3 7 17 32 39 48 47 61 58 51 50 53 57 60 63 63 62 63 62 56 51 51 50 50 47 45 42
40 36 15 9 10 8 6 2 4 6 4 6 10 10 7 7 6 7 18 10 7 7 11 16 19 17 16 15 16 24 28 35 37 24 43 52 61 60 60 57 59 63 63 60 59 59 55 50 48 47 47 46 43 41
38 22 9 6 4 5 2 3 6 3 0 1 5 6 5 8 5 8 8 6 6 18 23 23 24 22 15 15 15 18 23 28 31 26 38 51 52 56 55 53 56 59 62 60 58 55 52 49 46 46 47 47 46 46
26 7 1 1 2 1 3 3 2 3 4 5 3 3 3 7 6 8 4 2 8 23 31 29 25 22 15 9 11 15 21 23 26 31 40 47 49 51 52 51 51 51 55 57 57 52 49 47 45 46 47 49 49 48
7 5 5 2 6 4 3 4 4 4 4 4 4 2 3 7 4 4 6 10 29 35 34 34 28 17 8 10 15 17 18 18 30 39 42 41 45 47 46 43 44 46 48 52 53 52 50 47 46 46 47 47 47 47
5 11 11 15 6 7 9 5 7 8 6 3 3 7 4 4 3 3 5 16 35 39 38 37 33 28 19 14 16 19 19 17 22 36 42 42 44 50 56 56 54 51 49 47 49 52 50 47 45 43 42 40 39 40
5 11 12 12 8 5 3 3 4 5 7 9 6 5 3 1 6 0 3 12 26 40 41 37 30 24 20 22 21 17 13 9 9 17 29 36 37 43 45 49 53 50 51 50 48 45 43 42 42 40 37 35 36 35
6 6 7 12 7 4 6 5 3 10 7 9 14 4 12 3 1 9 2 5 27 35 38 32 22 17 20 19 20 22 22 26 27 26 28 26 24 29 31 29 27 31 41 44 43 41 39 36 35 33 33 33 32 32
3 4 0 7 6 6 16 10 4 5 9 12 7 4 6 6 10 9 1 13 25 37 39 35 33 31 29 27 25 23 19 29 33 33 30 29 31 31 34 33 32 33 37 42 42 38 34 32 31 30 30 30 28 30
2 4 1 3 7 8 12 12 6 11 10 17 21 23 23 21 30 20 14 26 34 38 39 38 32 28 33 35 35 30 27 23 17 11 14 20 24 30 34 35 34 34 36 38 40 41 41 40 40 40 39 38 38 38
6 12 9 11 8 10 18 31 34 30 21 14 33 33 22 17 26 38 30 28 29 29 34 42 38 28 26 30 30 30 31 25 20 16 14 16 18 22 24 27 28 28 30 32 34 36 36 36 35 35 36 38 38 39
9 10 12 4 4 23 31 13 15 17 21 21 13 9 12 9 13 14 32 26 32 35 37 38 36 33 30 34 33 28 25 25 25 23 21 18 21 20 20 21 23 24 25 26 28 29 30 32 34 36 36 36 36 38
6 7 11 12 9 10 10 17 11 9 9 9 11 16 11 10 11 8 14 20 23 27 32 35 37 36 33 32 30 29 29 27 26 27 25 21 20 22 25 26 28 29 30 31 32 34 36 37 38 38 37 36 36 37
Wind_Direction_850mb
175 176 186 188 195 200 206 213 213 219 234 222 217 225 180 187 203 207 215 218 235 271 322 225 209 170 153 151 135 163 93 13 53 72 114 178 117 198 95 149 164 148 128 145 92 85 277 137 142 152 167 127 159 162
193 188 182 189 198 200 206 213 212 228 232 220 212 199 178 196 203 209 214 220 227 236 239 89 100 132 146 153 139 132 133 118 148 94 76 118 95 82 142 154 45 96 174 151 148 198 331 317 148 133 152 152 155 164
166 167 172 182 192 196 203 207 223 226 234 208 203 181 181 195 195 198 206 234 186 198 110 141 97 101 115 147 145 121 118 117 120 110 139 129 93 121 124 198 109 83 139 89 112 7 55 114 126 132 141 152 162 162
160 165 176 182 193 191 201 219 216 227 205 198 193 188 187 189 186 198 213 257 194 181 116 55 94 88 101 137 123 138 139 127 118 107 81 107 109 174 185 157 124 184 99 113 72 87 99 110 129 134 133 138 144 148
165 173 175 172 178 195 209 219 222 226 204 171 177 183 183 185 186 204 227 199 199 201 160 121 83 77 99 124 129 136 138 134 107 72 64 114 127 112 28 78 120 181 157 146 202 183 136 157 145 145 138 141 146 146
171 172 172 168 174 199 226 227 210 202 184 169 172 177 174 170 184 187 226 194 183 181 170 73 60 78 105 125 128 128 129 107 91 87 99 99 95 108 99 145 225 187 180 150 143 156 154 150 150 151 141 146 148 148
184 172 165 172 186 208 224 213 182 172 161 165 168 170 167 169 171 185 225 162 169 161 126 74 22 51 95 114 106 99 103 83 78 89 70 98 88 81 100 152 176 154 161 141 147 142 132 153 156 154 145 147 148 148
175 166 167 179 186 208 200 184 166 169 161 158 165 163 163 174 170 203 216 149 144 119 94 101 338 49 85 85 78 71 80 70 46 76 79 84 83 64 105 213 143 144 145 149 152 160 158 158 155 153 154 153 152 152
173 186 181 178 183 201 197 137 145 156 153 156 161 161 147 162 178 207 138 108 98 109 111 102 129 178 111 81 89 66 60 53 43 76 45 70 310 216 207 165 152 157 154 154 154 158 155 157 158 159 161 162 158 158
198 188 177 163 176 199 160 117 150 147 147 155 162 149 130 153 174 174 184 163 129 88 96 95 124 117 133 92 59 88 46 62 62 296 67 78 248 241 189 177 166 167 164 159 143 140 156 160 164 166 170 170 167 162
160 140 140 142 145 135 142 136 136 144 151 149 111 81 135 128 172 52 1 35 9 50 66 106 130 121 107 98 125 51 148 36 88 264 117 305 280 217 180 176 171 176 179 177 179 173 174 168 168 169 171 172 170 165
119 119 150 125 107 111 123 145 146 149 164 143 121 119 115 76 51 79 321 342 67 157 144 135 126 104 99 100 94 33 95 42 157 133 81 253 247 178 174 177 177 176 176 174 176 171 172 170 170 168 168 170 170 169
114 129 140 122 58 118 100 152 139 139 153 146 91 85 57 25 102 168 154 247 255 183 154 152 93 102 97 80 76 76 79 186 138 54 227 227 191 178 178 178 176 176 176 171 172 171 171 173 171 169 167 169 170 172
117 114 105 78 41 86 146 128 141 142 135 95 86 45 71 173 225 197 195 198 167 152 142 123 82 85 91 63 108 91 202 107 57 196 235 233 194 169 176 178 176 173 175 173 171 172 172 172 168 170 172 170 174 176
110 113 98 66 55 75 132 129 146 153 89 91 118 131 221 250 264 245 228 242 142 150 136 100 68 86 45 96 45 113 111 214 209 228 232 191 169 170 173 174 174 173 175 172 172 172 172 170 167 168 174 176 179 180
119 123 100 86 41 66 65 126 124 100 65 77 70 102 335 170 301 225 216 208 153 144 134 94 97 80 82 126 128 189 151 217 240 216 212 165 168 171 172 173 174 175 176 174 173 173 172 170 170 171 173 179 181 187
134 116 118 101 84 72 64 92 89 43 54 61 45 39 4 277 264 254 199 159 157 149 117 115 94 161 113 88 167 184 205 222 257 183 165 170 171 171 172 173 173 175 175 175 173 173 173 172 173 176 177 178 182 184
124 121 117 110 97 87 92 67 81 70 61 49 52 9 337 303 300 38 145 173 168 154 124 132 121 110 145 162 227 225 206 203 157 159 163 167 168 170 172 172 174 176 176 176 175 173 175 176 180 183 184 182 179 181
123 126 123 125 115 58 63 45 38 61 19 5 351 348 331 306 317 312 207 186 175 149 119 86 86 141 213 216 192 171 170 161 152 155 164 167 171 173 176 179 181 179 177 177 177 177 179 184 187 187 187 186 185 184
124 132 138 129 54 36 49 49 60 54 17 7 345 343 330 331 346 11 162 181 174 158 72 74 178 201 198 155 177 188 172 165 157 152 162 172 178 181 183 184 182 181 181 179 180 181 183 185 188 192 193 194 192 192
145 152 151 124 65 50 78 132 122 57 37 347 344 347 332 348 61 98 139 177 184 82 126 156 150 157 147 101 146 159 176 176 174 173 173 173 179 183 181 182 185 186 186 185 185 185 189 192 191 192 195 196 197 199
156 162 145 99 42 37 56 16 75 31 41 354 348 11 2 9 37 72 123 146 111 112 129 151 151 131 115 104 121 157 175 183 187 190 186 180 175 181 184 185 186 187 188 190 190 190 191 194 195 194 195 196 197 199
150 149 89 68 28 24 316 40 64 208 127 81 35 14 7 359 52 116 83 95 110 144 159 162 140 124 117 115 132 156 176 193 197 201 189 186 189 186 186 187 190 191 190 193 195 195 195 193 194 197 198 198 200 202
135 85 81 133 61 331 320 33 217 266 106 73 77 41 5 356 10 64 73 67 123 161 165 168 164 145 138 160 177 182 187 186 194 190 188 189 189 189 193 195 195 198 202 196 193 194 196 196 196 197 202 203 205 209
146 192 232 184 174 157 65 291 154 76 104 138 110 7 316 2 70 73 163 186 162 166 174 180 182 192 201 192 195 190 186 189 194 186 183 193 183 180 181 189 192 194 196 197 194 193 195 197 201 201 203 207 211 215
135 200 183 194 194 168 181 131 184 150 143 122 168 101 54 45 40 211 197 169 176 180 188 193 194 188 189 205 202 195 185 177 189 193 188 185 185 187 184 186 188 189 191 197 202 199 200 201 202 202 205 208 213 216
173 203 206 190 199 163 147 168 208 119 145 189 152 117 86 210 241 127 161 188 181 187 194 198 208 219 214 179 154 154 155 164 186 192 186 185 189 194 199 197 196 195 198 198 199 206 209 207 207 208 210 213 218 221
222 174 162 188 220 161 75 354 183 185 191 176 124 134 163 189 279 313 194 182 188 188 190 191 189 190 175 158 154 154 147 145 139 142 157 171 174 186 198 208 214 213 216 212 208 206 206 211 216 219 223 227 231 232
219 157 222 165 132 154 206 205 242 182 171 166 108 103 102 79 6 351 303 160 179 179 179 180 176 180 181 168 161 164 167 164 162 158 165 172 179 185 186 189 195 201 204 205 205 204 204 209 217 223 230 235 240 242
204 213 59 147 157 211 214 198 193 173 159 137 122 116 105 94 60 60 106 146 163 168 176 176 164 174 173 170 168 168 166 167 174 187 191 185 171 176 174 172 173 178 182 184 190 196 200 205 210 213 219 225 228 232
196 187 161 177 204 198 149 146 140 140 128 121 141 129 130 120 78 61 73 110 135 163 173 174 166 168 173 177 182 177 171 175 182 179 171 160 169 167 164 163 163 170 178 185 193 201 207 213 218 224 230 237 241 244
188 198 147 182 149 164 149 123 98 100 124 122 105 120 113 86 68 55 40 74 115 130 146 155 157 153 169 179 181 183 190 186 185 185 183 178 177 175 175 180 185 189 194 202 210 217 223 229 235 240 245 248 250 251
80 95 139 142 171 195 151 118 102 91 74 89 91 99 87 75 85 70 53 58 83 102 116 123 132 142 154 161 168 173 180 188 198 206 208 208 210 210 210 213 216 218 220 222 225 228 233 239 244 248 252 254 255 255